Location: Alfortville
(48.8058°N, 2.4204°E)
Time: 03:41:19
(UTC+00:00)

Cosmos 1980 Rocket - Pass Details

Date: 22 May 2022
Orbit: 827 x 851 km, 71.0° (Epoch: 05 July)

Event Time Altitude Azimuth Distance (km) Brightness Sun altitude
Rises 23:09:48 0° 244° (WSW) 3,378 5.2 -20.2°
Reaches altitude 10° 23:12:35 10° 256° (WSW) 2,451 4.5 -20.2°
Maximum altitude 23:17:22 28° 314° (NW) 1,543 4.1 -20.3°
Drops below altitude 10° 23:22:12 10° 13° (NNE) 2,476 5.7 -20.4°
Sets 23:25:02 0° 25° (NNE) 3,419 6.4 -20.5°
